Location: ?????
(55.8833°N, 37.6500°E)
Time: 00:48:18
(UTC+00:00)

SPOT 3 Rocket - Pass Details

Date: 27 February 2020
Orbit: 779 x 795 km, 98.8° (Epoch: 04 April)

Event Time Altitude Azimuth Distance (km) Brightness Sun altitude
Exits shadow 15:51:53 - 119° (ESE) 2,768 5.9 -8.3°
Reaches altitude 10° 15:53:03 10° 113° (ESE) 2,361 5.5 -8.4°
Maximum altitude 15:57:27 29° 55° (NE) 1,435 4.5 -9.1°
Drops below altitude 10° 16:01:54 10° 358° (N) 2,378 6.1 -9.7°
Sets 16:04:29 0° 347° (NNW) 3,313 7.0 -10.0°
